Preview of NWS' New Version of Forecast
This preview is not operational and should not be used for support decisions.

Regional Weather Roundup (RWR)

Issued by National Weather Service (NWS)

                            
000
ASUS44 KJAN 151810
RWRMS 

MISSISSIPPI HOURLY WEATHER ROUNDUP
NATIONAL WEATHER SERVICE JACKSON MS
1200 PM CST FRI FEB 15 2019

NOTE: "FAIR: INDICATES FEW OR NO CLOUDS BELOW 12,000 FEET WITH NO
SIGNIFICANT WEATHER AND/OR OBSTRUCTIONS TO VISIBILITY.

MSZ001>002-007>008-010>013-018>021-025>028-034>036-151900-
NORTHWEST MISSISSIPPI
  
CITY           SKY/WX    TMP DP  RH WIND       PRES   REMARKS
BATESVILLE     FAIR      55  50  82 NE8       29.83F                  
CLARKSDALE     MOSUNNY   52  46  82 N10       29.84F                  
CLEVELAND      CLOUDY    55  52  89 NE8       29.82F                  
GREENWOOD      CLOUDY    63  58  83 S9        29.82F                  
6HR MIN TEMP:  59; 6HR MAX TEMP:  63;                                

GREENVILLE     CLOUDY    55  53  93 NE8       29.81F                  
6HR MIN TEMP:  54; 6HR MAX TEMP:  60; 6HR PCP: TRACE;                

OLIVE BRANCH   CLOUDY    45  39  81 NE10      29.85F                  
OXFORD         CLOUDY    54  48  82 NE7       29.85F                  
TUNICA           N/A     45  39  81 N12       29.86F                  
WINONA         CLOUDY    61  59  94 S5        29.83F                  
$$

MSZ003>006-009-014>017-022>024-029>033-037>039-151900-
NORTHEAST MISSISSIPPI
  
CITY           SKY/WX    TMP DP  RH WIND       PRES   REMARKS
ABERDEEN       CLOUDY    61  61 100 S5        29.87F                  
COLUMBUS AFB   FAIR      63  57  82 S3        29.86F                  
CORINTH        FAIR      54  48  82 N7        29.88F                  
GOLDN TRIANGLE CLOUDY    62  58  86 S6        29.87F                  
STARKVILLE     CLOUDY    61  57  88 CALM      29.88F                  
TUPELO         CLOUDY    60  54  80 CALM      29.85F                  
6HR MIN TEMP:  51; 6HR MAX TEMP:  60;                                

$$

MSZ040-058-151900-
CENTRAL MISSISSIPPI
  
CITY           SKY/WX    TMP DP  RH WIND       PRES   REMARKS
JACKSON INTL   CLOUDY    65  60  84 S9        29.86F                  
6HR MIN TEMP:  58; 6HR MAX TEMP:  65; 6HR PCP: TRACE;                

JACKSON HAWKNS CLOUDY    64  61  90 S8        29.85F                  
6HR MIN TEMP:  57; 6HR MAX TEMP:  64; 6HR PCP: TRACE;                

MADISON        CLOUDY    63  63 100 S5        29.85F                  
MERIDIAN KEY   CLOUDY    66  59  78 S6        29.88F                  
6HR MIN TEMP:  55; 6HR MAX TEMP:  66; 6HR PCP: TRACE;                

MERIDIAN NAS   CLOUDY    67  60  78 S7        29.89F                  
6HR MIN TEMP:  59; 6HR MAX TEMP:  66;                                

RAYMOND        CLOUDY    66  64  94 VRB3      29.84F                  
VICKSBURG VKS  MOCLDY    70  63  78 S13       29.82F                  
$$

MSZ059>079-151900-
SOUTH MISSISSIPPI
  
CITY           SKY/WX    TMP DP  RH WIND       PRES   REMARKS
HATTIESBURG    CLOUDY    65  62  90 S8        29.90F                  
6HR MIN TEMP:  52; 6HR MAX TEMP:  65; 6HR PCP:  0.01;                

LAUREL         CLOUDY    65  60  82 S8        29.89F                  
MCCOMB         CLOUDY    67  61  81 S9        29.87F                  
6HR MIN TEMP:  58; 6HR MAX TEMP:  68;                                

NATCHEZ        CLOUDY    70  63  78 S13G20    29.82F                  
6HR MIN TEMP:  59; 6HR MAX TEMP:  70;                                

PINE BELT      CLOUDY    66  62  87 S10       29.90F                  
6HR MIN TEMP:  53; 6HR MAX TEMP:  66;                                

$$

MSZ080>082-151900-
COASTAL MISSISSIPPI
  
CITY           SKY/WX    TMP DP  RH WIND       PRES   REMARKS
BAY ST LOUIS   CLOUDY    68  61  77 SW12      29.93F                  
BILOXI         CLOUDY    64  59  83 SW7       29.92F                  
6HR MIN TEMP:  61; 6HR MAX TEMP:  65;                                

PASCAGOULA     CLOUDY    69  58  67 S8G18     29.93F                  
6HR MIN TEMP:  61; 6HR MAX TEMP:  71;                                

GULFPORT       CLOUDY    66  59  78 S8G18     29.91F                  
6HR MIN TEMP:  61; 6HR MAX TEMP:  67;                                

$$

LAZ007>009-015>016-023>026-151900-
NORTHEAST LOUISIANA
  
CITY           SKY/WX    TMP DP  RH WIND       PRES   REMARKS
BASTROP        CLOUDY    65  63  91 SE5       29.80F                  
TALLULAH/VBURG CLOUDY    65  61  87 S7        29.82F                  
6HR MIN TEMP:  58; 6HR MAX TEMP:  65;                                

VIDALIA        CLOUDY    68  64  86 S12       29.81F                  
$$